Cloud_Cover
52 93 99 9 5 5 5 5 5 4 5 5 70 49 18 14 32 94 87 47 56 98
67 100 86 6 5 5 5 5 5 5 5 28 68 18 11 22 26 100 46 84 100 91
98 98 77 21 5 5 5 5 5 21 74 22 100 36 30 99 62 100 99 73 99 96
98 99 5 5 5 5 5 5 15 69 82 28 78 99 79 92 24 99 91 41 99 100
100 7 13 6 11 48 8 40 98 100 99 78 99 81 49 86 70 41 100 100 90 63
67 22 14 27 95 26 30 100 100 100 91 100 100 95 96 93 95 100 99 100 75 100
80 22 58 97 64 58 100 100 100 100 89 51 94 100 98 100 100 93 99 100 98 92
79 100 100 99 100 100 100 100 100 100 83 69 100 92 9 13 22 99 97 76 17 5
100 100 100 100 100 100 100 58 40 100 100 87 100 30 5 0 0 4 5 6 5 5
100 100 100 100 99 33 5 8 98 100 92 96 78 5 0 0 3 5 30 23 5 5
100 100 100 100 78 85 75 89 100 96 92 83 64 5 0 4 5 14 47 6 5 5
100 100 100 100 99 100 100 81 100 100 78 92 82 5 0 5 3 31 55 24 6 5
100 100 100 100 100 100 99 100 100 100 97 81 54 5 0 1 5 10 62 55 68 38
100 100 100 100 100 100 100 100 100 100 100 68 12 20 4 5 5 7 5 5 37 100